DELTA 1 DEB, 12171

Orbit data source: Space-Track

DELTA 1 DEB, 12171 is space debris in SSO originally from a launch on Sun, 05 Mar 1978 UTC launched from the Air Force Western Test Range (AFWTR). Debris objects in space refer to the collection of defunct objects orbiting the Earth. Examples of debris include non-operational satellites, rocket bodies, and fragments generated from explosions, collisions, or faulty payload assembly.

Loading next visibility...
Identifier
12171, 1978-026L
Orbit
SSO
Country
Flag of USUS
Related business
Manufacturer
Unknown
Mission
Spacecraft
Bus & Motor
Unknown
Mass
Unknown
Launch date (UTC)
1978-03-05 (48 years ago)
Launch vehicle
Unknown
Launch site
Air Force Western Test Range (AFWTR)
Object type
Payload
Rocket body
Debris
Shape & HBR
Unknown shape, 0.8 m
Radar Cross Section
Large (>1 m²)

Expand to show TLE details & history
Last TLE update: 2 days ago

TLE from 2 days ago
0 DELTA 1 DEB
1 12171U 78026L   26171.29631082 -.00000005  00000-0  25826-4 0  9996
2 12171  99.2346 189.6451 0037958 106.4918 318.1065 14.04081310322881
Epoch: 2026-06-20T07:06Z
TLE epoch observation values (Epoch: 2026-06-20T07:06:41.254Z)
Latitude
62.89673°
Longitude
156.03909°
Altitude
869.981 km
Speed
7.434 km/s
True Right ascension
11h 24m 53s
True Declination
62° 45' 33"
Sunlit
Object was in daylight at epoch
Visualization orbit readout
Latitude
Unknown
Longitude
Unknown
Altitude
Unknown
Speed
Unknown
Apparent Right ascension
Unknown
Apparent Declination
Unknown
Sunlit
N/A
Visualization observer readout
Local Sidereal Time
00:39:27
Azimuth
Unknown
Elevation
Unknown
Doppler factor
Unknown
Orbital elements
Apogee altitude
904.441 km
Perigee altitude
849.363 km
Semi-major axis
7,255.039 km
Eccentricity
0.0038
Inclination
99.2346°
RAAN
189.6451°
Arg. of periapsis
106.4918°
True anomaly
317.81502°
Mean anomaly
318.1065°
Eccentric anomaly
317.96086°
Mean motion
3.51223 °/min
Orbital period
102.5 mins
BSTAR
0.000025826
Loading maneuver chart data...
Computing Atmospheric mass density...
Loading historical data...
Loading historical data...
Loading historical data...
Loading historical data...
Loading historical data...
Loading historical data...
Loading historical data...

Documentation

Showing up to 5 results
|